Weather Service Report


145 
ASUS43 KDTX 270410
RWRMI 
MICHIGAN HOURLY REGIONAL WEATHER ROUNDUP
NATIONAL WEATHER SERVICE DETROIT/PONTIAC MI
1200 AM EDT MON JUN 27 2016

NOTE: "FAIR" INDICATES FEW OR NO CLOUDS BELOW 12,000 FEET WITH NO
SIGNIFICANT WEATHER AND/OR OBSTRUCTION TO VISIBILITY.

MIZ047>049-052>055-059>063-066>070-074>076-081>083-270500-
SOUTHEAST LOWER MICHIGAN
  
CITY           SKY/WX    TMP DP  RH WIND       PRES   REMARKS
ADRIAN         PTCLDY    70  70 100 W3        30.02S                  
ALMA           CLOUDY    70  67  92 SW10      29.97S                  
ANN ARBOR      MOCLDY    70  68  93 SW5       30.00S                  
BAD AXE        CLOUDY    71  66  83 W6        29.95S                  
CARO           CLOUDY    70  66  86 SW5       29.95S                  
DETROIT CITY   CLOUDY    79  71  76 W7        29.97S                  
DETROIT        CLOUDY    74  71  91 W9        30.00R                  
FLINT          CLOUDY    75  65  70 SW6       29.98R                  
HILLSDALE      CLOUDY    71  69  96 W5        30.04R FOG              
HOWELL         CLOUDY    72  66  81 W3        30.00S                  

CITY           SKY/WX    TMP DP  RH WIND       PRES   REMARKS
JACKSON        CLOUDY    72  72 100 SW5       30.02R                  
LAMBERTVILLE   CLOUDY    74  71  91 CALM      30.01S                  
LANSING        CLOUDY    71  67  87 SW8       30.00R                  
LAPEER         FAIR      73  64  71 W6        29.98R                  
MASON          CLOUDY    71  66  86 CALM      30.01R                  
MONROE         CLOUDY    73  72  98 W7        29.99F                  
MT. CLEMENS    CLOUDY    80  68  67 W8        29.96R                  
PONTIAC        MOCLDY    75  67  76 W7        29.98S                  
PORT HOPE        N/A     74  66  76 SW6       29.91S                  
PORT HURON     CLOUDY    73  72  94 W3        29.96R                  
TRI CITIES     CLOUDY    73  67  81 SW7       29.96R                  
MIDLAND        FAIR      70  65  82 SW5       29.94S                  
TROY           CLOUDY    79  67  66 W7        30.00S                  
SAGINAW HB     CLOUDY    72  64  78 SW7       29.95F                  
$$
MIZ043>046-050>051-056>058-064>065-071>073-077>080-270500-
SOUTHWEST LOWER MICHIGAN
  
CITY           SKY/WX    TMP DP  RH WIND       PRES   REMARKS
BATTLE CREEK   CLOUDY    69  69 100 SW6       30.02R                  
BENTON HARBOR  PTCLDY    72  69  90 S3        30.01R FOG              
BIG RAPIDS     PTCLDY    69  67  94 SW5       29.96S                  
COLDWATER      CLOUDY    69  69 100 CALM      30.02S FOG              
FREMONT        FAIR      69  69 100 SW8       29.97S                  
HOLLAND        PTCLDY    74  66  76 SW9       30.00R                  
GRAND RAPIDS   CLOUDY    73  67  81 SW7       29.99R                  
IONIA          FAIR      70  66  86 SW7       29.99R                  
KALAMAZOO      CLOUDY    71  68  90 SW7       30.02R                  
LUDINGTON      CLEAR     73  58  59 W10G17    29.94F                  
MARSHALL       CLOUDY    71  70  96 SW3       30.02R                  
MOUNT PLEASANT CLOUDY    73  67  81 SW8       29.95S                  
MUSKEGON       PTCLDY    71  65  81 SW10      29.98R                  
SOUTH HAVEN    PTCLDY    72  69  91 SW5       30.01R                  
$$
MIZ016>042-270500-
NORTHERN LOWER MICHIGAN
  
CITY           SKY/WX    TMP DP  RH WIND       PRES   REMARKS
ALPENA         CLEAR     72  57  59 S7        29.88S                  
BEAVER ISLAND  CLEAR     64  58  79 W8        29.84S                  
BELLAIRE       CLEAR     73  63  72 S3        29.89S                  
CADILLAC       CLEAR     67  64  90 SW7       29.95S                  
CHARLEVOIX     CLEAR     73  57  57 SW13G20   29.89S                  
FRANKFORT      CLEAR     70  60  71 CALM      29.91S                  
GAYLORD        CLEAR     68  61  78 SW5       29.91S                  
GRAYLING       CLEAR     69  64  81 SW3       29.93S                  
HARBOR SPRINGS CLEAR     71  59  64 W9        29.86S                  
HOUGHTON LAKE  PTCLDY    71  64  78 SW9       29.94S                  
MANISTEE       CLEAR     63  60  90 E3        29.92S                  
OSCODA         PTCLDY    69  60  73 SW7       29.90F                  
PELLSTON       CLEAR     73  56  54 VRB7      29.85S                  
ROGERS CITY    CLEAR     71  58  63 SW7       29.86F                  
TRAVERSE CITY  CLEAR     73  60  63 S3        29.88S                  
$$
MIZ007>008-015-270500-
EASTERN UPPER MICHIGAN
  
CITY           SKY/WX    TMP DP  RH WIND       PRES   REMARKS
KINROSS        CLEAR     65  61  87 SW6       29.82S                  
MACKINAC ISLAN CLEAR     66  59  77 W16G22    29.83S                  
NEWBERRY       CLEAR     60  59  97 SW7       29.81F                  
S. S. MARIE    PTCLDY    67  60  78 SW7       29.80F                  
MUNISING         N/A     69  56  62 S7        29.80S                  
$$
MIZ004>006-011>014-085-270500-
CENTRAL UPPER MICHIGAN
  
CITY           SKY/WX    TMP DP  RH WIND       PRES   REMARKS
MANISTIQUE     CLEAR     64  60  85 CALM      29.82F                  
ESCANABA       CLEAR     70  55  60 SW6       29.84F                  
MENOMINEE      CLEAR     72  59  63 SW6         N/A                   
SAWYER-GWINN   MOCLDY    70  55  57 SW7       29.85R                  
$$
MIZ001>003-009>011-084-270500-
WESTERN UPPER MICHIGAN
  
CITY           SKY/WX    TMP DP  RH WIND       PRES   REMARKS
IRON MOUNTAIN  CLEAR     72  52  49 SW8       29.86S                  
HOUGHTON       LGT RAIN  63  56  78 W14G23    29.83R                  
COPPER HARBOR    N/A     63  57  81 NW10G25   29.79R                  
IRONWOOD       CLOUDY    64  57  77 W8G16     29.89S                  
$$

ABBREVIATIONS USED IN REMARKS
   TC - TEMPERATURE IN CELSIUS
  WCI - WIND CHILL INDEX
   HX - HEAT INDEX
  VSB - VISIBILITY

  

Return to Home page


Western Regional Climate Center, wrcc@dri.edu